Terminal Aerodrome Forecast
Issued by NWS

Home | Current Version | Previous Version | Text Only | Print | Product List | Glossary On
Versions: 1 2 3 4 5 6 7 8 9 10 11 12 13 14 15
000
FTUS43 KSGF 190500
TAFJLN
TAF
KJLN 190520Z 1906/2006 19009KT P6SM SCT250
     FM190800 18008KT P6SM SCT070 BKN250 WS010/26035KT
      TEMPO 1909/1913 4SM -TSRA BR SCT020 OVC040CB
     FM191400 21009KT P6SM VCTS SCT040CB OVC150
     FM191600 22014G22KT P6SM SCT050
     FM200100 19010KT P6SM SKC=

USA.gov is the U.S. government's official web portal to all federal, state and local government web resources and services.